Home   Weather   Bochum   Past weeks

Flag for Germany Past Weather in Bochum, North Rhine-Westphalia, Germany — Yesterday and Last 2 Weeks

Now
79 °F

Passing clouds.


Feels Like: 81 °F
Forecast: 62 / 75 °F
Wind: 5 mph from Northeast

Location: Dortmund / Wickede

Current Time: May 29, 2017 at 11:49:29 am

Latest Report: May 29, 2017 at 11:20 am


Visibility: N/A

Pressure: 29.92 "Hg

Humidity: 61%

Dew Point: 64 °F

Location of BochumLocation

Past Weather in Bochum — Graph

°F

Bochum Temperature Yesterday

Maximum temperature yesterday: 77 °F (at 3:20 pm)
Minimum temperature yesterday: 61 °F (at 5:20 am)
Average temperature yesterday: 69 °F

High & Low Weather Summary for the Past Weeks

 TemperatureHumidityPressure
High84 °F (May 27, 3:50 pm)94% (May 15, 6:50 am)30.42 "Hg (May 15, 6:50 am)
Low45 °F (May 21, 5:20 am)25% (May 27, 5:20 pm)29.77 "Hg (May 19, 5:20 am)
Average65 °F59%30.13 "Hg
* Reported May 14 10:20 am — May 29 10:20 am, Bochum. Weather by CustomWeather, © 2017

Note: Actual official high and low records may vary slightly from our data, if they occured in-between our weather recording intervals... More about our weather records

Advertising

Bochum Weather History for the Previous 24 Hours

Scroll right to see more
 ConditionsComfort  
Time TempWeatherWind HumidityBarometerVisibility
10:20 am
Mon, May 29
75 °FPassing clouds.5 mph65%29.92 "HgN/A
9:50 am75 °FSunny.3 mph65%29.95 "Hg10 mi
9:20 am73 °FPassing clouds.5 mph69%29.95 "HgN/A
8:50 am72 °FSunny.3 mph73%29.95 "Hg10 mi
8:20 am70 °FSunny.3 mph78%29.95 "Hg10 mi
7:50 am68 °FSunny.2 mph78%29.95 "Hg10 mi
7:20 am68 °FClear.2 mph78%29.95 "Hg6 mi
6:50 am64 °FClear.3 mph88%29.95 "Hg6 mi
6:20 am63 °FClear.3 mph88%29.95 "Hg4 mi
5:50 am63 °FClear.2 mph88%29.95 "Hg6 mi
5:20 am63 °FSunny.1 mph88%29.95 "Hg10 mi
9:50 pm
Sun, May 28
72 °FClear.3 mph65%30.04 "Hg10 mi
9:20 pm72 °FSunny.3 mph65%30.04 "Hg10 mi
8:20 pm73 °FPassing clouds.5 mph65%30.04 "HgN/A
7:50 pm73 °FSunny.3 mph65%30.04 "Hg10 mi
7:20 pm77 °FSunny.3 mph61%30.04 "Hg10 mi
6:50 pm77 °FSunny.3 mph57%30.04 "Hg10 mi
6:20 pm77 °FSunny.3 mph61%30.04 "Hg10 mi
5:50 pm77 °FSunny.1 mph61%30.04 "Hg10 mi
5:20 pm77 °FSunny.3 mph57%30.07 "Hg10 mi
4:50 pm77 °FSunny.3 mph57%30.07 "Hg10 mi
4:20 pm77 °FSunny.3 mph54%30.07 "Hg10 mi
3:50 pm77 °FSunny.3 mph65%30.07 "Hg10 mi
3:20 pm77 °FSunny.2 mph61%30.07 "Hg10 mi
2:50 pm72 °FSunny.3 mph69%30.07 "Hg10 mi
2:20 pm72 °FScattered clouds.6 mph73%30.07 "Hg6 mi
1:50 pm68 °FBroken clouds.3 mph78%30.07 "Hg5 mi
1:20 pm64 °FScattered showers. Broken clouds.14 mph83%30.07 "Hg4 mi
12:50 pm64 °FLight rain. Partly sunny.6 mph83%30.09 "Hg4 mi
12:20 pm63 °FSprinkles. Partly sunny.5 mph88%30.12 "HgN/A
11:50 am63 °FThundershowers. Partly sunny.6 mph83%30.12 "Hg4 mi
11:35 am64 °FThundershowers. Partly sunny.12 mph78%30.12 "HgN/A
11:20 am68 °FScattered showers. Broken clouds.7 mph73%30.09 "Hg5 mi
Weather by CustomWeather, © 2017

See weather overviewHow to use our weather pages